Flag for Netherlands Weather past 2 weeks in Zwolle, Netherlands

Now
39 °F

Passing clouds.


Feels Like: 33 °F
Forecast: 40 / 45 °F
Wind: 9 mph from Northwest

Location: Amsterdam Schiphol Airport

Current Time: Jan 27, 2015 at 2:34:03 AM

Latest Report: Jan 27, 2015 at 1:55 AM


Visibility: N/A

Pressure: 30.18 "Hg

Humidity: 81%

Dew point: 34 °F

Location of ZwolleLocation

Historic Weather in Zwolle — Graph

°F

Zwolle temperature yesterday

Maximum temperature yesterday: 46 °F (at 8:25 AM)
Minimum temperature yesterday: 41 °F (at 12:25 AM)
Average temperature yesterday: 44 °F

Past Weeks' High & Low Weather Summary

 TemperatureHumidityPressure
High52 °F (Jan 12, 5:25 PM)100% (Jan 12, 8:55 PM)30.39 "Hg (Jan 12, 8:55 PM)
Low21 °F (Jan 23, 4:25 AM)66% (Jan 17, 1:25 PM)29.27 "Hg (Jan 15, 3:55 PM)
Average38 °F88%29.90 "Hg
* Reported Jan 12 1:25 AM — Jan 27 1:25 AM, Zwolle, Weather by CustomWeather, © 2014

Note: Actual official high and low records may vary slightly from our data, if they occured in-between our weather recording intervals... More about our weather records

Advertising

Zwolle weather history for previous 24 hours

 ConditionsComfort  
Time TempWeatherWind HumidityBarometerVisibility
1:25 AM
Jan 27
39 °FPassing clouds.7 mph81%30.15 "HgN/A
12:55 AM39 °FPassing clouds.10 mph81%30.15 "HgN/A
12:25 AM41 °FPassing clouds.13 mph76%30.15 "HgN/A
11:55 PM
Jan 26
41 °FPassing clouds.13 mph81%30.15 "HgN/A
11:25 PM43 °FPassing clouds.14 mph76%30.15 "HgN/A
10:55 PM43 °FPassing clouds.13 mph76%30.15 "HgN/A
9:55 PM43 °FPassing clouds.15 mph81%30.12 "HgN/A
9:25 PM43 °FPassing clouds.16 mph81%30.12 "HgN/A
8:55 PM43 °FPassing clouds.17 mph81%30.12 "HgN/A
8:25 PM43 °FPassing clouds.16 mph81%30.12 "HgN/A
7:55 PM43 °FPassing clouds.18 mph81%30.09 "HgN/A
7:25 PM43 °FPassing clouds.18 mph81%30.09 "HgN/A
6:55 PM43 °FPassing clouds.17 mph81%30.09 "HgN/A
6:25 PM43 °FPassing clouds.18 mph81%30.09 "HgN/A
5:55 PM45 °FPassing clouds.18 mph76%30.07 "HgN/A
5:25 PM45 °FPassing clouds.18 mph76%30.07 "HgN/A
4:55 PM45 °FScattered clouds.16 mph81%30.07 "HgN/A
4:25 PM45 °FPassing clouds.17 mph81%30.04 "HgN/A
3:55 PM45 °FPassing clouds.17 mph81%30.04 "HgN/A
3:25 PM46 °FPartly sunny.20 mph82%30.04 "HgN/A
2:55 PM46 °FPartly sunny.20 mph82%30.01 "HgN/A
2:25 PM46 °FScattered clouds.17 mph93%30.04 "HgN/A
1:55 PM46 °FMostly cloudy.17 mph100%30.04 "HgN/A
1:25 PM46 °FDrizzle. Mostly cloudy.17 mph100%30.04 "Hg2 mi
12:55 PM46 °FDrizzle. Mostly cloudy.15 mph100%30.04 "Hg1 mi
12:25 PM46 °FBroken clouds.18 mph100%30.04 "Hg5 mi
11:55 AM46 °FDrizzle. Broken clouds.17 mph100%30.04 "Hg3 mi
11:25 AM46 °FDrizzle. Broken clouds.16 mph100%30.04 "Hg3 mi
10:55 AM46 °FDrizzle. Broken clouds.17 mph100%30.07 "Hg1 mi
10:25 AM46 °FMostly cloudy.16 mph93%30.07 "HgN/A
9:55 AM46 °FCloudy.14 mph93%30.07 "Hg6 mi
9:25 AM46 °FDrizzle. More clouds than sun.13 mph93%30.07 "Hg4 mi
8:55 AM46 °FMostly cloudy.13 mph93%30.09 "Hg4 mi
8:25 AM46 °FDrizzle. Mostly cloudy.13 mph93%30.09 "Hg4 mi
7:55 AM45 °FLow clouds.13 mph100%30.09 "Hg6 mi
7:25 AM45 °FMostly cloudy.13 mph100%30.09 "Hg6 mi
6:55 AM45 °FLight rain. Fog.13 mph100%30.12 "Hg3 mi
6:25 AM45 °FLight rain. Fog.13 mph100%30.12 "Hg3 mi
5:55 AM45 °FDrizzle. Fog.13 mph93%30.12 "Hg3 mi
5:25 AM45 °FDrizzle. Fog.12 mph93%30.12 "Hg2 mi
4:55 AM43 °FDrizzle. Fog.10 mph100%30.15 "Hg1 mi
4:25 AM43 °FFog.8 mph93%30.15 "Hg3 mi
3:55 AM43 °FMostly cloudy.9 mph93%30.18 "Hg5 mi
3:25 AM43 °FLow clouds.9 mph93%30.18 "Hg6 mi
2:55 AM43 °FMostly cloudy.9 mph93%30.18 "HgN/A
2:25 AM43 °FMostly cloudy.9 mph87%30.21 "HgN/A
Weather by CustomWeather, © 2014

See weather overviewHow to use our weather pages